[[{"header":{"parameterUnit":"m.s-1","parameterCategory":1,"la1":30.2991,"la2":30.254,"lo1":-89.0895,"lo2":-89.0444,"dy":0.0017,"dx":0.0017,"nx":28,"ny":28,"refTime":"2023-10-08T21:00:00:Z","depth":0,"parameterNumber":2,"parameterNumberName":"U-component_of_WINDS"},"data":[0,0,0,0,0,0,0,0,0,0,0,0,0,0,0,0,0,0,0,0,0,0,0,0,0,0,0,0,0,0,0,0,0,0,0,0,0,0,0,0,0,0,0,0,0,0,0,0,0,0,0,0,0,0,0,0,0,0,-1.604,-1.6041,0,-1.6141,-1.6142,-1.6143,-1.6166,-1.6165,-1.6165,-1.6164,-1.6265,-1.6268,-1.6272,0,0,0,0,0,0,0,0,0,0,0,0,0,-1.5866,-1.5869,-1.604,-1.6041,-1.6043,-1.6141,-1.6142,-1.6143,-1.6166,-1.6165,-1.6165,-1.6164,-1.6264,-1.6268,-1.6272,0,0,0,0,0,0,0,0,0,0,0,0,0,-1.5952,-1.587,-1.604,-1.6066,-1.6069,-1.614,-1.6142,-1.6144,-1.6166,-1.6165,-1.6164,-1.6163,-1.6263,-1.6267,-1.6272,-1.6324,0,0,-1.6288,-1.629,0,0,0,0,0,0,0,0,-1.5947,-1.5958,-1.6061,-1.6064,-1.6068,-1.614,-1.6118,-1.6204,-1.6167,-1.613,-1.6164,-1.6163,-1.6224,-1.6232,-1.6253,-1.6329,-1.6333,-1.6288,-1.6291,-1.6293,-1.6295,0,0,0,0,0,0,0,-1.5941,-1.5954,-1.608,-1.6062,-1.6067,-1.6072,-1.6083,-1.6134,-1.6181,-1.6133,-1.6135,-1.6146,-1.6226,-1.6248,-1.6256,-1.6334,-1.6288,-1.6292,-1.6295,-1.6297,-1.6456,-1.6458,0,0,0,0,0,0,-1.5931,-1.5949,-1.6077,-1.6083,-1.6004,-1.6076,-1.6088,-1.6118,-1.6181,-1.6189,-1.6147,-1.6147,-1.624,-1.625,-1.6259,-1.6323,-1.6293,-1.6298,-1.6301,-1.6455,-1.6457,-1.6458,0,0,0,0,0,0,-1.5927,-1.5942,-1.6073,-1.6016,-1.6034,-1.608,-1.6113,-1.612,-1.6143,-1.6192,-1.62,-1.6162,-1.624,-1.6252,-1.6308,-1.6327,-1.63,-1.6305,-1.6454,-1.6456,-1.6457,-1.6451,0,0,0,0,0,0,-1.5922,-1.594,-1.5961,-1.6017,-1.6036,-1.612,-1.6114,-1.6123,-1.6152,-1.6153,-1.6207,-1.6216,-1.624,-1.63,-1.6313,-1.6333,-1.6309,-1.6452,-1.6455,-1.6457,-1.645,-1.6452,-1.6455,0,0,0,0,0,-1.5915,-1.5955,-1.5962,-1.5977,-1.6063,-1.6121,-1.6132,-1.616,-1.6153,-1.6174,-1.6205,-1.6214,-1.6323,-1.6306,-1.632,-1.6342,-1.6451,-1.6454,-1.6457,-1.6449,-1.6452,-1.6455,0,0,0,0,0,0,-1.5899,-1.5963,-1.5971,-1.603,-1.607,-1.6125,-1.6151,-1.6163,-1.6205,-1.6204,-1.6236,-1.6249,-1.6301,-1.6328,-1.6307,-1.6395,-1.6387,-1.6392,-1.6376,-1.6379,-1.6382,-1.6374,-1.6313,0,0,0,0,0,-1.5903,-1.5945,-1.5998,-1.6045,-1.6064,-1.6104,-1.6131,-1.6149,-1.6191,-1.6208,-1.6244,-1.6284,-1.6327,-1.6355,-1.6398,-1.6454,-1.6466,-1.6477,-1.6479,-1.6481,-1.6485,-1.6516,-1.6521,-1.6467,-1.6467,-1.6467,0,0,-1.591,-1.595,-1.5974,-1.6042,-1.6076,-1.6118,-1.6118,-1.6163,-1.6195,-1.6215,-1.6269,-1.6296,-1.6343,-1.6399,-1.6426,-1.6423,-1.6503,-1.6484,-1.6486,-1.6489,-1.6519,-1.6524,-1.6529,-1.6469,-1.6469,-1.6468,0,0,-1.5944,-1.5979,-1.6022,-1.6055,-1.6105,-1.6132,-1.6142,-1.6195,-1.6214,-1.627,-1.6285,-1.6323,-1.6397,-1.643,-1.6456,-1.6503,-1.6512,-1.6516,-1.6529,-1.6558,-1.6563,-1.6566,-1.6582,-1.6587,-1.652,-1.652,-1.652,0,-1.5947,-1.6011,-1.6042,-1.6086,-1.6115,-1.6136,-1.6178,-1.6209,-1.6271,-1.629,-1.6286,-1.6379,-1.6413,-1.6476,-1.6487,-1.6508,-1.652,-1.6509,-1.656,-1.6564,-1.6568,-1.6583,-1.6589,-1.652,-1.652,-1.652,-1.652,0,-1.6011,-1.6056,-1.6084,-1.6143,-1.6176,-1.6219,-1.6255,-1.6284,-1.6299,-1.6326,-1.6381,-1.6422,-1.6473,-1.649,-1.6505,-1.6555,-1.6551,-1.6553,-1.6545,-1.6573,-1.6587,-1.6593,-1.652,-1.652,-1.652,-1.652,0,0,-1.6037,-1.6113,-1.6123,-1.6149,-1.6207,-1.6241,-1.6285,-1.6336,-1.6359,-1.6401,-1.6438,-1.65,-1.6502,-1.6532,-1.6552,-1.6578,-1.6611,-1.6577,-1.6578,-1.658,-1.6667,-1.6664,-1.667,-1.6618,-1.6619,-1.662,-1.6663,0,-1.6078,-1.6157,-1.6185,-1.625,-1.6291,-1.6312,-1.635,-1.6389,-1.6415,-1.6453,-1.6482,-1.6525,-1.6525,-1.6543,-1.657,-1.6601,-1.6628,-1.6599,-1.6651,-1.6653,-1.6637,-1.6678,-1.6676,-1.6713,-1.6669,-1.667,-1.667,0,-1.6135,-1.6178,-1.6247,-1.6299,-1.6317,-1.635,-1.6399,-1.6435,-1.6479,-1.6496,-1.653,-1.6548,-1.6593,-1.6584,-1.6646,-1.6625,-1.6649,-1.6667,-1.6669,-1.6674,-1.6662,-1.6683,-1.6726,-1.6731,-1.668,-1.6679,-1.6679,0,-1.6145,-1.6221,-1.6271,-1.6294,-1.6356,-1.6379,-1.6405,-1.6449,-1.6477,-1.6519,-1.6537,-1.6584,-1.6609,-1.6645,-1.6674,-1.6665,-1.6734,-1.6727,-1.6748,-1.6747,-1.6761,-1.6759,-1.6807,-1.6778,-1.6778,-1.6778,-1.6778,0,-1.6187,-1.6228,-1.6277,-1.6308,-1.6354,-1.6386,-1.6431,-1.6459,-1.6497,-1.6534,-1.6555,-1.6588,-1.6626,-1.6664,-1.6687,-1.6735,-1.6747,-1.6761,-1.6766,-1.6758,-1.6756,-1.6773,-1.677,-1.6779,-1.6779,-1.6779,-1.6779,0,-1.6206,-1.624,-1.6297,-1.6351,-1.6365,-1.6397,-1.6443,-1.6473,-1.6501,-1.6546,-1.6559,-1.6601,-1.6647,-1.6681,-1.674,-1.6756,-1.6806,-1.6812,-1.6791,-1.6794,-1.6813,-1.681,-1.6872,-1.6881,-1.6847,-1.6847,-1.6848,0,-1.6229,-1.6261,-1.6319,-1.6345,-1.6371,-1.6413,-1.6442,-1.6475,-1.6504,-1.6557,-1.6581,-1.6629,-1.6668,-1.6741,-1.6776,-1.6821,-1.6828,-1.6847,-1.6835,-1.6825,-1.6827,-1.6824,-1.6827,-1.6848,-1.6848,-1.6848,-1.6848,0,-1.6266,-1.6282,-1.6323,-1.637,-1.6404,-1.6443,-1.6482,-1.6502,-1.6542,-1.6574,-1.6621,-1.6652,-1.6713,-1.6759,-1.6808,-1.6835,-1.6848,-1.6852,-1.6859,-1.685,-1.6836,-1.6843,-1.6794,-1.685,-1.685,-1.685,-1.685,-1.685,-1.6287,-1.6316,-1.6361,-1.6406,-1.6439,-1.6475,-1.6506,-1.6538,-1.6578,-1.663,-1.6647,-1.6696,-1.6739,-1.6806,-1.6833,-1.6871,-1.6871,-1.6881,-1.6884,-1.6885,-1.6884,-1.6831,-1.6881,-1.6881,-1.6881,-1.6881,-1.6881,0,-1.6324,-1.6354,-1.6396,-1.645,-1.6485,-1.6495,-1.6539,-1.6567,-1.661,-1.6649,-1.6688,-1.6742,-1.6787,-1.6827,-1.6874,-1.6897,-1.6904,-1.6908,-1.6905,-1.6911,-1.6883,-1.6872,-1.6901,-1.6901,-1.6901,-1.6901,-1.6901,-1.6901,-1.6348,-1.6397,-1.6418,-1.6484,-1.6513,-1.6562,-1.6585,-1.6618,-1.665,-1.6709,-1.6747,-1.6773,-1.6812,-1.6862,-1.6903,-1.6914,-1.6929,-1.6932,-1.6943,-1.6916,-1.6913,-1.6911,-1.69,-1.6935,-1.6935,-1.6968,-1.6969,-1.6969]},{"header":{"parameterUnit":"m.s-1","parameterCategory":1,"la1":30.2991,"la2":30.254,"lo1":-89.0895,"lo2":-89.0444,"dy":0.0017,"dx":0.0017,"nx":28,"ny":28,"refTime":"2023-10-08T21:00:00:Z","depth":0,"parameterNumber":3,"parameterNumberName":"V-component_of_WINDS"},"data":[0,0,0,0,0,0,0,0,0,0,0,0,0,0,0,0,0,0,0,0,0,0,0,0,0,0,0,0,0,0,0,0,0,0,0,0,0,0,0,0,0,0,0,0,0,0,0,0,0,0,0,0,0,0,0,0,0,0,-1.6267,-1.6268,0,-1.6281,-1.6281,-1.6281,-1.6266,-1.6265,-1.6264,-1.6264,-1.6279,-1.628,-1.6281,0,0,0,0,0,0,0,0,0,0,0,0,0,-1.623,-1.6231,-1.6267,-1.6268,-1.6268,-1.6281,-1.6281,-1.6281,-1.6266,-1.6265,-1.6264,-1.6264,-1.6279,-1.628,-1.6281,0,0,0,0,0,0,0,0,0,0,0,0,0,-1.6245,-1.6231,-1.6267,-1.6262,-1.6261,-1.6281,-1.6281,-1.6281,-1.6266,-1.6265,-1.6264,-1.6263,-1.6278,-1.628,-1.6281,-1.6307,0,0,-1.6285,-1.6286,0,0,0,0,0,0,0,0,-1.6245,-1.6247,-1.6262,-1.6262,-1.6262,-1.6271,-1.6273,-1.629,-1.6266,-1.6264,-1.6264,-1.6263,-1.6277,-1.6278,-1.6283,-1.6308,-1.6309,-1.6286,-1.6286,-1.6287,-1.6287,0,0,0,0,0,0,0,-1.6244,-1.6246,-1.6273,-1.6263,-1.6262,-1.6259,-1.626,-1.6276,-1.6275,-1.6264,-1.6263,-1.6265,-1.6277,-1.6282,-1.6283,-1.6309,-1.6286,-1.6287,-1.6288,-1.6288,-1.6356,-1.6357,0,0,0,0,0,0,-1.6243,-1.6245,-1.6272,-1.6273,-1.6251,-1.626,-1.6262,-1.6269,-1.6275,-1.6275,-1.6266,-1.6264,-1.628,-1.6282,-1.6284,-1.6315,-1.6287,-1.6288,-1.6289,-1.6355,-1.6356,-1.6357,0,0,0,0,0,0,-1.6242,-1.6246,-1.6272,-1.6259,-1.6262,-1.6262,-1.627,-1.6269,-1.6274,-1.6276,-1.6276,-1.6271,-1.6279,-1.6282,-1.6301,-1.6315,-1.6289,-1.629,-1.6354,-1.6356,-1.6357,-1.6377,0,0,0,0,0,0,-1.6241,-1.6245,-1.6255,-1.6259,-1.6263,-1.6289,-1.6271,-1.627,-1.6276,-1.6275,-1.6281,-1.6281,-1.6279,-1.6299,-1.6303,-1.6316,-1.6291,-1.6353,-1.6355,-1.6356,-1.6375,-1.6379,-1.6382,0,0,0,0,0,-1.624,-1.626,-1.6255,-1.6259,-1.6275,-1.629,-1.6292,-1.6288,-1.6278,-1.6287,-1.6289,-1.6281,-1.6313,-1.6302,-1.6305,-1.632,-1.6352,-1.6354,-1.6356,-1.6373,-1.6378,-1.6382,0,0,0,0,0,0,-1.6258,-1.6261,-1.6255,-1.6278,-1.6284,-1.6287,-1.6299,-1.6293,-1.6302,-1.63,-1.6296,-1.6297,-1.6318,-1.6321,-1.6308,-1.6345,-1.6331,-1.6334,-1.6343,-1.6347,-1.635,-1.6349,-1.6293,0,0,0,0,0,-1.6265,-1.6276,-1.6278,-1.6298,-1.6301,-1.63,-1.6306,-1.6302,-1.6309,-1.6311,-1.6314,-1.632,-1.6332,-1.634,-1.635,-1.6375,-1.6377,-1.6387,-1.6391,-1.6393,-1.6396,-1.641,-1.6414,-1.6364,-1.6364,-1.6364,0,0,-1.6279,-1.6281,-1.6289,-1.6301,-1.6305,-1.6318,-1.6302,-1.6316,-1.6325,-1.6313,-1.6332,-1.6334,-1.6341,-1.6364,-1.6374,-1.6367,-1.641,-1.6396,-1.6398,-1.64,-1.6412,-1.6417,-1.6421,-1.6366,-1.6366,-1.6365,0,0,-1.631,-1.6313,-1.633,-1.6334,-1.634,-1.6339,-1.6343,-1.6348,-1.6349,-1.6367,-1.6359,-1.637,-1.639,-1.6395,-1.6401,-1.6434,-1.6427,-1.6438,-1.6456,-1.647,-1.6474,-1.6477,-1.6489,-1.6493,-1.6441,-1.6441,-1.6441,0,-1.6326,-1.6344,-1.6339,-1.6354,-1.6359,-1.6349,-1.6366,-1.637,-1.638,-1.6385,-1.6376,-1.6401,-1.6405,-1.6429,-1.6437,-1.6442,-1.6446,-1.6437,-1.6473,-1.6477,-1.648,-1.6491,-1.6496,-1.6442,-1.6442,-1.6442,-1.6441,0,-1.6364,-1.6377,-1.639,-1.6398,-1.6406,-1.6421,-1.6419,-1.6427,-1.6423,-1.6423,-1.6442,-1.6447,-1.6458,-1.6464,-1.646,-1.6487,-1.6482,-1.6474,-1.6459,-1.6486,-1.6497,-1.6501,-1.6444,-1.6443,-1.6443,-1.6442,0,0,-1.6407,-1.6413,-1.6418,-1.6422,-1.6428,-1.6438,-1.6453,-1.6464,-1.6471,-1.6478,-1.6491,-1.6508,-1.65,-1.6506,-1.6503,-1.6515,-1.6541,-1.6505,-1.6505,-1.6512,-1.6571,-1.6578,-1.6583,-1.6537,-1.6538,-1.6538,-1.6571,0,-1.6439,-1.6465,-1.6461,-1.6486,-1.6497,-1.6488,-1.6501,-1.6507,-1.6507,-1.6518,-1.6519,-1.6531,-1.6519,-1.6523,-1.6534,-1.6536,-1.6553,-1.6533,-1.6549,-1.655,-1.6548,-1.6588,-1.6595,-1.6626,-1.6575,-1.6576,-1.6576,0,-1.6479,-1.6487,-1.6513,-1.6517,-1.6522,-1.6534,-1.6543,-1.6553,-1.6559,-1.6559,-1.6566,-1.6561,-1.6577,-1.6562,-1.6584,-1.657,-1.6577,-1.6579,-1.658,-1.6581,-1.6565,-1.6591,-1.6635,-1.664,-1.6583,-1.6582,-1.6582,0,-1.6508,-1.6525,-1.6543,-1.6546,-1.6552,-1.656,-1.6563,-1.6568,-1.6575,-1.6584,-1.6588,-1.6599,-1.6604,-1.6613,-1.6611,-1.66,-1.6634,-1.6619,-1.6634,-1.6635,-1.6642,-1.6641,-1.6688,-1.6646,-1.6646,-1.6646,-1.6646,0,-1.6543,-1.6559,-1.6556,-1.6567,-1.6585,-1.658,-1.6599,-1.6601,-1.6605,-1.6617,-1.6609,-1.6621,-1.6617,-1.6629,-1.6627,-1.6646,-1.6649,-1.6649,-1.6649,-1.665,-1.665,-1.6654,-1.6652,-1.6647,-1.6647,-1.6647,-1.6646,0,-1.6578,-1.6576,-1.6595,-1.6599,-1.66,-1.6613,-1.6616,-1.6627,-1.6627,-1.6642,-1.6645,-1.6645,-1.6658,-1.6657,-1.6672,-1.6671,-1.6694,-1.6691,-1.6692,-1.6691,-1.6707,-1.6705,-1.6757,-1.6764,-1.6718,-1.6718,-1.6719,0,-1.6601,-1.6613,-1.6618,-1.6625,-1.6628,-1.6639,-1.6646,-1.6642,-1.6649,-1.6657,-1.6667,-1.6679,-1.6689,-1.671,-1.6712,-1.6723,-1.672,-1.6738,-1.6722,-1.6723,-1.6721,-1.672,-1.6721,-1.6741,-1.6741,-1.6742,-1.6742,0,-1.6641,-1.664,-1.6649,-1.6659,-1.6667,-1.6674,-1.668,-1.6687,-1.6684,-1.6692,-1.6705,-1.6712,-1.6727,-1.6739,-1.675,-1.6754,-1.6748,-1.6747,-1.6751,-1.6753,-1.6753,-1.6753,-1.67,-1.6746,-1.6746,-1.6745,-1.6745,-1.6745,-1.6671,-1.6682,-1.6686,-1.6697,-1.6702,-1.6708,-1.6718,-1.6719,-1.673,-1.6741,-1.6738,-1.6753,-1.6759,-1.6772,-1.6777,-1.6789,-1.6783,-1.6789,-1.679,-1.6792,-1.6794,-1.6751,-1.6791,-1.6791,-1.6791,-1.679,-1.679,0,-1.6711,-1.6714,-1.6724,-1.6733,-1.6742,-1.6735,-1.6742,-1.675,-1.6762,-1.6768,-1.6777,-1.6792,-1.6804,-1.6807,-1.6819,-1.6827,-1.6825,-1.6831,-1.683,-1.6831,-1.6798,-1.6794,-1.6832,-1.6832,-1.6832,-1.6832,-1.6832,-1.6832,-1.6733,-1.675,-1.6749,-1.6769,-1.6772,-1.6785,-1.679,-1.6796,-1.6801,-1.6817,-1.6827,-1.6828,-1.6833,-1.6845,-1.6856,-1.6857,-1.6862,-1.6868,-1.6868,-1.6837,-1.6833,-1.6829,-1.6825,-1.6869,-1.6869,-1.6899,-1.69,-1.69]}]]